Overview Statistics Trail Chart Weather Telemetry Raw packets
 

This is the latest recevied weather packets stored in our database for station/object KY0TEQ-13. If no packets are shown the sender has not sent any weather packets the latest 10 day(s).

<< 90 91 92 93 94 95 96 >>
Time Temp. Humidity Pressure Rain* Wind** Luminosity Snow
1788021416 23.89° C 36% 1312.4 hPa 0 mm - 547 W/m² -
1788021106 24.44° C 38% 1312.2 hPa 0 mm - 600 W/m² -
1788020801 24.44° C 37% 1312.3 hPa 0 mm - 576 W/m² -
1788020495 23.33° C 37% 1312.4 hPa 0 mm - 402 W/m² -
1788020186 23.33° C 38% 1312.4 hPa 0 mm - 617 W/m² -
1788019881 23.33° C 38% 1312.4 hPa 0 mm - 672 W/m² -
1788019580 23.33° C 39% 1312.4 hPa 0 mm - 248 W/m² -
1788019275 23.33° C 39% 1312.2 hPa 0 mm - 284 W/m² -
1788018972 23.33° C 39% 1312.2 hPa 0 mm - 209 W/m² -
1788018668 23.89° C 37% 1312.3 hPa 0 mm - 216 W/m² -
1788018367 23.89° C 42% 1312.2 hPa 0 mm - 462 W/m² -
1788018062 22.78° C 42% 1312.1 hPa 0 mm - 368 W/m² -
1788017758 22.22° C 44% 1312.3 hPa 0 mm - 358 W/m² -
1788017455 22.22° C 48% 1312.2 hPa 0 mm - 490 W/m² -
1788017151 21.67° C 47% 1312.2 hPa 0 mm - 412 W/m² -
1788016851 21.67° C 48% 1312.4 hPa 0 mm - 287 W/m² -
1788016549 21.11° C 48% 1312.2 hPa 0 mm - 129 W/m² -
1788016244 20.56° C 51% 1312.1 hPa 0 mm - 329 W/m² -
1788015943 20.56° C 53% 1312.5 hPa 0 mm - 329 W/m² -
1788015639 20.56° C 53% 1312.1 hPa 0 mm - 267 W/m² -
1788015343 20.56° C 55% 1312.1 hPa 0 mm - 100 W/m² -
1788015038 20.56° C 53% 1311.7 hPa 0 mm - 249 W/m² -
1788014737 19.44° C 58% 1312.1 hPa 0 mm - 192 W/m² -
1788014433 18.89° C 59% 1312.1 hPa 0 mm - 182 W/m² -
1788014127 18.89° C 61% 1312.1 hPa 0 mm - 105 W/m² -

* Rain latest hour (hover to see other rain measurements)
** Current wind speed in m/s (hover to see current wind gust speed)